Weather History for North Platte, NE

Change the Weather History Date:

Thursday, May 30, 2013

  Actual Average Record
Temperature  
Mean Temperature 63 °F 62 °F  
Max Temperature 76 °F 76 °F 97 °F (1934)
Min Temperature 50 °F 49 °F 35 °F (1883)
Degree Days  
Heating Degree Days 2 4  
Month to date heating degree days 225 239  
Since 1 July heating degree days 6711 6629  
Cooling Degree Days 0 2  
Month to date cooling degree days 47 21  
Year to date cooling degree days 48 24  
Growing Degree Days 12 (Base 50)    
Moisture  
Dew Point 48 °F    
Average Humidity 59    
Maximum Humidity 93    
Minimum Humidity 25    
Precipitation  
Precipitation T in 0.12 in 1.83 in (1977)
Month to date precipitation 3.12 3.15  
Year to date precipitation 6.16 7.31  
Snow  
Snow 0.00 in 0.00 in 0.00 in ()
Month to date snowfall 0.9 0.0  
Since 1 July snowfall 30.2 28.5  
Snow Depth 0.00 in    
Sea Level Pressure  
Sea Level Pressure 29.53 in    
Wind  
Wind Speed 10 mph (West)    
Max Wind Speed 25 mph    
Max Gust Speed 33 mph    
Visibility 10 miles    
Events Rain    
T = Trace of Precipitation, MM = Missing Value Source: NWS Daily Summary

Daily Weather History Graph

Daily Weather History Graph

Search for Another Location

Airport:

Trip Planner

Search our weather history database for the weather conditions in past years. The results will help you decide how hot, cold, wet, or windy it might be!

Date:

Astronomy

May. 30, 2013 Rise Set
Actual Time 6:13 AM CDT 9:07 PM CDT
Civil Twilight 5:40 AM CDT 9:40 PM CDT
Nautical Twilight 4:59 AM CDT 10:22 PM CDT
Astronomical Twilight 4:10 AM CDT 11:10 PM CDT
Moon 1:07 AM CDT (5/30) 12:25 PM CDT (5/30)
Length of Visible Light 16h 00m
Length of Day
14h 54m
Waning Gibbous, 62% of the Moon is Illuminated
May 30
Waning Gibbous
May 31
Last Quarter
Jun 8
New
Jun 16
First Quarter
Jun 23
Full

Hourly Weather History & Observations

Time (CDT) Temp. Dew Point Humidity Pressure Visibility Wind Dir Wind Speed Gust Speed Precip Events Conditions
12:53 AM 54.0 °F 52.0 °F 93% 29.49 in 10.0 mi West 3.5 mph - N/A   Scattered Clouds
1:53 AM 53.1 °F 52.0 °F 96% 29.51 in 10.0 mi SSW 5.8 mph - N/A   Clear
2:53 AM 53.1 °F 51.1 °F 93% 29.53 in 10.0 mi SSW 8.1 mph - N/A   Clear
3:53 AM 53.1 °F 50.0 °F 89% 29.52 in 10.0 mi SW 4.6 mph - N/A   Clear
4:53 AM 51.1 °F 48.0 °F 89% 29.51 in 10.0 mi West 3.5 mph - N/A   Clear
5:53 AM 52.0 °F 48.9 °F 89% 29.52 in 10.0 mi WSW 5.8 mph - N/A   Clear
6:53 AM 51.1 °F 46.9 °F 86% 29.55 in 10.0 mi West 3.5 mph - N/A   Clear
7:53 AM 54.0 °F 48.0 °F 80% 29.56 in 10.0 mi WSW 9.2 mph - N/A   Clear
8:53 AM 59.0 °F 50.0 °F 72% 29.55 in 10.0 mi West 12.7 mph - N/A   Clear
9:53 AM 63.0 °F 48.9 °F 60% 29.53 in 10.0 mi West 13.8 mph - N/A   Clear
10:53 AM 66.9 °F 50.0 °F 54% 29.53 in 10.0 mi West 11.5 mph - N/A   Clear
11:53 AM 69.1 °F 51.1 °F 53% 29.53 in 10.0 mi WSW 15.0 mph - N/A   Clear
12:53 PM 71.1 °F 50.0 °F 47% 29.53 in 10.0 mi West 16.1 mph - N/A   Clear
1:53 PM 73.0 °F 48.9 °F 42% 29.51 in 10.0 mi West 16.1 mph 25.3 mph N/A   Clear
2:53 PM 75.0 °F 48.0 °F 38% 29.49 in 10.0 mi West 17.3 mph 27.6 mph N/A   Partly Cloudy
3:53 PM 72.0 °F 48.9 °F 44% 29.50 in 8.0 mi West 15.0 mph 24.2 mph 0.00 in Rain Light Rain
4:53 PM 75.9 °F 42.1 °F 30% 29.48 in 10.0 mi West 24.2 mph 29.9 mph 0.00 in   Partly Cloudy
5:53 PM 75.9 °F 37.9 °F 25% 29.48 in 10.0 mi West 24.2 mph 33.4 mph N/A   Clear
6:53 PM 75.0 °F 37.9 °F 26% 29.49 in 10.0 mi West 17.3 mph 31.1 mph N/A   Clear
7:41 PM 69.8 °F 46.4 °F 43% 29.57 in 10.0 mi NW 12.7 mph 23.0 mph N/A   Partly Cloudy
7:53 PM 68.0 °F 46.9 °F 47% 29.53 in 10.0 mi NW 11.5 mph - N/A   Mostly Cloudy
8:53 PM 66.9 °F 48.0 °F 51% 29.55 in 10.0 mi Calm Calm - N/A   Partly Cloudy
9:53 PM 57.0 °F 48.0 °F 72% 29.60 in 10.0 mi Calm Calm - N/A   Clear
10:53 PM 55.9 °F 48.0 °F 75% 29.64 in 10.0 mi WNW 3.5 mph - N/A   Clear
11:53 PM 54.0 °F 48.0 °F 80% 29.67 in 10.0 mi Calm Calm - N/A   Clear